Starlink 1750

operational
NORAD ID: 46337 Int'l Des: 2020-062 Owner: SPXS Country: US Constellation: starlink
LEOCIRCULAR

Über Starlink 1750

Beschreibung wird geladen...

Live-Position

3D-Globus wird geladen...

Nächste Überflüge

Höhenverlauf

Altitude vs Time

uPlot chart will show altitude changes over time

Zweizeiliger Elementsatz

1 46337U 20062N 25351.30484547 .00376124 00000-0 53509-2 0 9991
2 46337 53.0479 343.1890 0008289 359.1503 0.9491 15.54514279292508
Epoch: 17. Dez. 2025 • Age: 7 hours

Aktueller Status

Höhe 408.8 km
Geschwindigkeit 7.67 km/s
Subsatellitenpunkt 52.74°N, 127.26°E
Startdatum 3. Sept. 2020
Alter 5.2 years
Typ internet

Technische Details

Klassifizierung Payload
Masse 260.00 kg
Trockenmasse 248.00 kg
Gesamtmasse 260.00 kg
Länge 0.20 m
Durchmesser 2.80 m
Spannweite 9.00 m
Form Box + pan
Hersteller SPXS
Bus-Typ Starlink
Phasenstatus In Orbit
Besitzer/Staat SPXS/US

Große Konstellationen

Loading constellations...